Location: Alto Pass Reservoir
(37.5801°N, 89.3084°W)
Time: 20:37:09
(UTC+00:00)

Cosmos 2298 Rocket - Pass Details

Date: 12 July 2022
Orbit: 775 x 784 km, 74.0° (Epoch: 11 August)

Event Time Altitude Azimuth Distance (km) Brightness Sun altitude
Rises 06:15:13 0° 1° (N) 3,280 8.5 -30.4°
Reaches altitude 10° 06:18:59 10° 27° (NNE) 2,346 7.3 -30.3°
Maximum altitude 06:21:32 13° 56° (ENE) 2,110 6.7 -30.3°
Drops below altitude 10° 06:24:05 10° 85° (E) 2,338 6.6 -30.3°
Enters shadow 06:24:46 - 92° (E) 2,469 6.7 -30.2°
